N3PB Weather Reports


Display with metric or nautical units.
time (UTC)temp
F
wind
direction
speed
MPH
gust
MPH
rain 1hr
in
rain 24hr
in
rain mn
in
humidity
%
barometer
mb
20260502152212 51 284 0.0 0.0 0.00 0.00 0.00 53 1012.9
20260502151706 50 222 0.0 0.0 0.00 0.00 0.00 54 1013.0
20260502151202 50 137 0.0 0.0 0.00 0.00 0.00 55 1012.9
20260502150708 49 56 0.0 0.0 0.00 0.00 0.00 53 1012.9
20260502150203 49 148 0.0 0.0 0.00 0.00 0.00 52 1012.9
20260502130708 44 250 0.0 0.0 0.00 0.00 0.00 61 1013.2
20260502130206 44 211 0.0 0.0 0.00 0.00 0.00 62 1013.1
20260502123702 44 266 0.0 0.0 0.00 0.00 0.00 62 1013.1
20260502123203 44 281 0.0 0.0 0.00 0.00 0.00 63 1013.1
20260502122702 44 93 0.0 0.0 0.00 0.00 0.00 64 1013.3
20260502122205 43 15 0.0 0.0 0.00 0.00 0.00 63 1013.3
20260502121705 43 11 0.0 0.0 0.00 0.00 0.00 66 1013.4
20260502121205 43 11 0.0 0.0 0.00 0.00 0.00 66 1013.1
20260502120702 43 289 0.0 0.0 0.00 0.00 0.00 64 1013.1
20260502120205 43 289 0.0 0.0 0.00 0.00 0.00 64 1013.2
20260502115702 43 211 0.0 0.0 0.00 0.00 0.00 65 1013.2
20260502115206 43 264 0.0 0.0 0.00 0.00 0.00 66 1013.2
20260502114706 43 263 0.0 0.0 0.00 0.00 0.00 67 1013.3
20260502114205 43 244 0.0 0.0 0.00 0.00 0.00 68 1013.3
20260502113702 43 101 0.0 0.0 0.00 0.00 0.00 68 1013.2
20260502113205 43 101 0.0 0.0 0.00 0.00 0.00 68 1013.1
20260502112702 43 101 0.0 0.0 0.00 0.00 0.00 67 1013.0
20260502112205 43 101 0.0 0.0 0.00 0.00 0.00 67 1013.0
20260502111702 43 95 0.0 0.0 0.00 0.00 0.00 68 1013.0
20260502111211 42 109 0.0 0.0 0.00 0.00 0.00 68 1012.9
20260502110708 42 202 0.0 0.0 0.00 0.00 0.00 67 1013.0
20260502110205 42 229 0.0 0.0 0.00 0.00 0.00 68 1013.0
20260502105702 42 230 0.0 0.0 0.00 0.00 0.00 68 1013.0
20260502105211 42 244 0.0 0.0 0.00 0.00 0.00 68 1012.9
20260502104711 43 244 0.0 0.0 0.00 0.00 0.00 68 1012.9
20260502104202 43 261 0.0 0.0 0.00 0.00 0.00 68 1012.9
20260502103702 43 262 0.0 0.0 0.00 0.00 0.00 68 1013.1
20260502103202 43 265 0.0 0.0 0.00 0.00 0.00 69 1013.0
20260502102702 43 265 0.0 0.0 0.00 0.00 0.00 68 1013.2
20260502102202 43 265 0.0 0.0 0.00 0.00 0.00 67 1013.2
20260502101705 43 265 0.0 0.0 0.00 0.00 0.00 67 1013.3
20260502101205 43 281 0.0 0.0 0.00 0.00 0.00 68 1013.4
20260502100703 43 290 0.0 0.0 0.00 0.00 0.00 67 1013.5
20260502100205 43 289 0.0 0.0 0.00 0.00 0.00 67 1013.4
20260502091205 43 202 0.0 0.0 0.00 0.00 0.00 70 1013.8
20260502090705 43 202 0.0 0.0 0.00 0.00 0.00 70 1013.9
20260502090211 43 202 0.0 0.0 0.00 0.00 0.00 70 1014.0
20260502071202 47 176 0.0 0.0 0.00 0.00 0.00 73 1014.1
20260502070705 47 180 0.0 0.0 0.00 0.00 0.00 73 1014.1
20260502070205 47 178 0.0 0.0 0.00 0.00 0.00 73 1014.2
20260502065708 47 178 0.0 0.0 0.00 0.00 0.00 74 1014.3
20260502065205 47 179 0.0 0.0 0.00 0.00 0.00 73 1014.3
20260502064702 47 98 0.0 0.0 0.00 0.00 0.00 74 1014.4
20260502064202 47 139 0.0 0.0 0.00 0.00 0.00 75 1014.4
20260502063702 46 147 0.0 0.0 0.00 0.00 0.00 75 1014.4
20260502063202 46 130 0.0 0.0 0.00 0.00 0.00 76 1014.5
20260502062702 46 119 0.0 0.0 0.00 0.00 0.00 75 1014.6
20260502062205 46 119 0.0 0.0 0.00 0.00 0.00 75 1014.7
20260502061708 46 119 0.0 0.0 0.00 0.00 0.00 75 1014.7
20260502061205 47 119 0.0 0.0 0.00 0.00 0.00 75 1014.7
20260502060705 47 119 0.0 0.0 0.00 0.00 0.00 74 1014.8
20260502060205 47 119 0.0 0.0 0.00 0.00 0.00 74 1014.7
20260502055705 47 119 0.0 0.0 0.00 0.00 0.00 74 1014.8
20260502055201 47 119 0.0 0.0 0.00 0.00 0.00 73 1014.9
20260502054702 47 119 0.0 0.0 0.00 0.00 0.00 73 1014.9
20260502054211 47 119 0.0 0.0 0.00 0.00 0.00 73 1014.7
20260502053702 47 119 0.0 0.0 0.00 0.00 0.00 73 1014.7
20260502053207 48 119 0.0 0.0 0.00 0.00 0.00 72 1014.6
20260502052701 48 119 0.0 0.0 0.00 0.00 0.00 72 1014.7
20260502052201 48 119 0.0 0.0 0.00 0.00 0.00 72 1014.8
20260502051708 48 119 0.0 0.0 0.00 0.00 0.00 71 1014.7
20260502051203 48 119 0.0 0.0 0.00 0.00 0.00 70 1014.6
20260502050701 48 119 0.0 0.0 0.00 0.00 0.00 70 1014.7
20260502050208 48 116 0.0 0.0 0.00 0.00 0.00 70 1014.8
20260502045702 48 113 0.0 0.0 0.00 0.00 0.00 71 1014.8
20260502045204 49 242 0.0 0.0 0.00 0.00 0.00 71 1014.9
20260502044702 49 242 0.0 0.0 0.00 0.00 0.00 71 1014.9
20260502044204 49 242 0.0 0.0 0.00 0.00 0.00 71 1014.9
20260502043702 49 242 0.0 0.0 0.00 0.00 0.00 71 1015.0
20260502043205 49 242 0.0 0.0 0.00 0.00 0.00 71 1014.9
20260502042707 49 241 0.0 0.0 0.00 0.00 0.00 71 1014.9
20260502042201 50 241 0.0 0.0 0.00 0.00 0.00 72 1015.0
20260502041705 50 241 0.0 0.0 0.00 0.00 0.00 72 1014.9
20260502041202 50 241 0.0 0.0 0.00 0.00 0.00 71 1015.0
20260502040701 50 241 0.0 0.0 0.00 0.00 0.00 70 1014.9
20260502040205 50 240 0.0 0.0 0.00 0.00 0.00 71 1014.9
20260502035702 50 242 0.0 0.0 0.00 0.00 0.00 70 1014.9
20260502035201 51 242 0.0 0.0 0.00 0.00 0.00 70 1014.9
20260502034702 51 242 0.0 0.0 0.00 0.00 0.00 70 1014.9
20260502034205 51 242 0.0 0.0 0.00 0.00 0.00 70 1015.0
20260502033711 51 242 0.0 0.0 0.00 0.00 0.00 70 1015.0
20260502033202 51 242 0.0 0.0 0.00 0.00 0.00 70 1015.1
20260502032702 51 242 0.0 0.0 0.00 0.00 0.00 70 1015.1
20260502032201 51 218 0.0 0.0 0.00 0.00 0.00 69 1015.0
20260502031702 52 218 0.0 0.0 0.00 0.00 0.00 69 1014.9
20260502031205 52 269 0.0 0.0 0.00 0.00 0.00 69 1014.9
20260502030701 52 269 0.0 0.0 0.00 0.00 0.00 69 1014.8
20260502030205 52 269 0.0 0.0 0.00 0.00 0.00 68 1014.9
20260502025708 52 269 0.0 0.0 0.00 0.00 0.00 68 1014.8
20260502025201 52 269 0.0 0.0 0.00 0.00 0.00 67 1014.9
20260502024704 53 271 0.0 0.0 0.00 0.00 0.00 67 1014.7
20260502024202 53 271 0.0 0.0 0.00 0.00 0.00 66 1014.9
20260502023707 53 321 0.0 0.0 0.00 0.00 0.00 66 1014.8
20260502023205 54 182 0.0 0.0 0.00 0.00 0.00 65 1014.7
20260502022707 54 181 0.0 0.0 0.00 0.00 0.00 64 1014.7
20260502022202 54 181 0.0 0.0 0.00 0.00 0.00 63 1014.6
20260502021710 54 180 0.0 0.0 0.00 0.00 0.00 63 1014.5
20260502021201 55 180 0.0 0.0 0.00 0.00 0.00 62 1014.4
20260502020704 55 284 0.0 0.0 0.00 0.00 0.00 61 1014.3
20260502020202 55 284 0.0 0.0 0.00 0.00 0.00 61 1013.9
20260502015704 55 284 0.0 0.0 0.00 0.00 0.00 60 1013.8
20260502015201 56 285 0.0 0.0 0.00 0.00 0.00 59 1013.7
20260502014701 56 285 0.0 0.0 0.00 0.00 0.00 57 1013.6
20260502014201 56 280 0.0 0.0 0.00 0.00 0.00 57 1013.5
20260502013704 56 219 0.0 0.0 0.00 0.00 0.00 56 1013.5
20260502013201 56 283 0.0 0.0 0.00 0.00 0.00 56 1013.4
20260502012701 56 283 0.0 0.0 0.00 0.00 0.00 55 1013.4
20260502012202 56 284 0.0 0.0 0.00 0.00 0.00 54 1013.4
20260502011701 56 283 0.0 0.0 0.00 0.00 0.00 54 1013.3
20260502011201 56 271 0.0 0.0 0.00 0.00 0.00 53 1013.0
20260502010704 56 322 0.0 0.0 0.00 0.00 0.00 57 1012.8
20260502010205 56 326 0.0 0.0 0.00 0.00 0.00 57 1012.5
20260502005701 56 326 0.0 0.0 0.00 0.00 0.00 55 1012.4
20260502005207 57 326 0.0 0.0 0.00 0.00 0.00 54 1012.4
20260502004701 57 326 0.0 0.0 0.00 0.00 0.00 54 1012.2
20260502004202 58 327 0.0 0.0 0.00 0.00 0.00 53 1012.1
20260502003701 58 327 0.0 0.0 0.00 0.00 0.00 52 1012.0
20260502003204 59 329 0.0 0.0 0.00 0.00 0.00 50 1011.9
20260502002702 59 257 0.0 0.0 0.00 0.00 0.00 50 1011.7
20260502002205 59 259 0.0 0.0 0.00 0.00 0.00 49 1011.6
20260502001701 60 258 0.0 0.0 0.00 0.00 0.00 52 1011.5
20260502001201 60 258 0.0 0.0 0.00 0.00 0.00 49 1011.5
20260502000702 60 259 0.0 0.0 0.00 0.00 0.00 45 1011.4
20260502000208 60 257 0.0 0.0 0.00 0.00 0.00 45 1011.4
20260501235704 61 256 0.0 0.0 0.00 0.00 0.00 45 1011.2
20260501235201 61 259 0.0 0.0 0.00 0.00 0.00 46 1011.0
20260501234704 61 191 0.0 0.0 0.00 0.00 0.00 48 1010.9
20260501234204 61 290 0.0 0.0 0.00 0.00 0.00 45 1010.9
20260501233701 61 292 0.0 0.0 0.00 0.00 0.00 45 1010.8
20260501233202 61 279 0.0 0.0 0.00 0.00 0.00 46 1010.8
20260501232704 61 299 0.0 0.0 0.00 0.00 0.00 53 1010.8
20260501232202 61 302 0.0 0.0 0.00 0.00 0.00 56 1010.7
20260501231704 61 11 0.0 0.0 0.00 0.00 0.00 57 1010.7
20260501231205 62 332 0.0 0.0 0.00 0.00 0.00 52 1010.6
20260501230701 62 257 0.0 0.0 0.00 0.00 0.00 56 1010.7
20260501230201 62 257 0.0 0.0 0.00 0.00 0.00 55 1010.7
20260501225701 63 257 0.0 0.0 0.00 0.00 0.00 54 1010.7
20260501225208 63 257 0.0 0.0 0.00 0.00 0.00 53 1010.5
20260501224704 63 257 0.0 0.0 0.00 0.00 0.00 52 1010.5
20260501224204 63 257 0.0 0.0 0.00 0.00 0.00 52 1010.3
20260501223704 63 257 0.0 0.0 0.00 0.00 0.00 50 1010.4
20260501223201 63 257 0.0 0.0 0.00 0.00 0.00 50 1010.5
20260501222710 64 257 0.0 0.0 0.00 0.00 0.00 51 1010.5
20260501222210 64 257 0.0 0.0 0.00 0.00 0.00 48 1010.4
20260501221701 64 252 0.0 0.0 0.00 0.00 0.00 47 1010.4
20260501221204 65 277 0.0 0.0 0.00 0.00 0.00 46 1010.5
20260501220701 65 86 0.0 0.0 0.00 0.00 0.00 46 1010.5
20260501220201 66 271 0.0 0.0 0.00 0.00 0.00 46 1010.4
20260501215701 66 301 0.0 0.0 0.00 0.00 0.00 45 1010.4
20260501215201 67 277 0.0 0.0 0.00 0.00 0.00 44 1010.2
20260501214701 67 49 0.0 0.0 0.00 0.00 0.00 45 1010.3
20260501214207 67 351 0.0 0.0 0.00 0.00 0.00 47 1010.3
20260501213701 67 231 0.0 0.0 0.00 0.00 0.00 44 1010.4
20260501213201 67 221 0.0 0.0 0.00 0.00 0.00 44 1010.2
20260501212704 67 114 0.0 0.0 0.00 0.00 0.00 44 1010.3
20260501212204 68 188 0.0 0.0 0.00 0.00 0.00 43 1010.4
20260501211701 68 278 0.0 0.0 0.00 0.00 0.00 43 1010.3
20260501211201 68 229 0.0 0.0 0.00 0.00 0.00 43 1010.3
20260501210701 69 272 0.0 0.0 0.00 0.00 0.00 41 1010.2
20260501210204 69 326 0.0 0.0 0.00 0.00 0.00 42 1010.2
20260501205701 69 291 0.0 0.0 0.00 0.00 0.00 44 1010.1
20260501205210 69 221 0.0 0.0 0.00 0.00 0.00 44 1010.3
20260501204701 69 271 0.0 0.0 0.00 0.00 0.00 43 1010.3
20260501204204 69 146 0.0 0.0 0.00 0.00 0.00 43 1010.4
20260501203701 69 335 0.0 0.0 0.00 0.00 0.00 42 1010.3
20260501203201 69 321 0.0 0.0 0.00 0.00 0.00 43 1010.3
20260501202701 68 45 0.0 0.0 0.00 0.00 0.00 42 1010.5
20260501202204 68 159 0.0 0.0 0.00 0.00 0.00 45 1010.6
20260501201707 68 267 0.0 0.0 0.00 0.00 0.00 43 1010.5
20260501201204 68 252 0.0 0.0 0.00 0.00 0.00 45 1010.6
20260501200701 68 313 0.0 0.0 0.00 0.00 0.00 44 1010.6
20260501200204 68 169 0.0 0.0 0.00 0.00 0.00 41 1010.8
20260501195707 68 286 0.0 0.0 0.00 0.00 0.00 41 1010.8
20260501195201 67 306 0.0 0.0 0.00 0.00 0.00 41 1010.9
20260501194701 67 252 0.0 0.0 0.00 0.00 0.00 45 1010.7
20260501194201 67 259 0.0 0.0 0.00 0.00 0.00 41 1010.8
20260501193701 67 314 0.0 0.0 0.00 0.00 0.00 42 1011.0
20260501193207 67 113 0.0 0.0 0.00 0.00 0.00 41 1011.1
20260501192701 67 269 0.0 0.0 0.00 0.00 0.00 42 1011.1
20260501192204 67 199 0.0 0.0 0.00 0.00 0.00 48 1011.2
20260501191701 67 26 0.0 0.0 0.00 0.00 0.00 43 1011.2
20260501191204 66 232 0.0 0.0 0.00 0.00 0.00 50 1011.3
20260501190704 66 229 0.0 0.0 0.00 0.00 0.00 43 1011.4
20260501190210 66 93 0.0 0.0 0.00 0.00 0.00 43 1011.6
20260501185704 65 270 0.0 0.0 0.00 0.00 0.00 42 1011.4
20260501185204 66 261 0.0 0.0 0.00 0.00 0.00 44 1011.5
20260501184701 67 315 0.0 0.0 0.00 0.00 0.00 37 1011.5
20260501184201 67 34 0.0 0.0 0.00 0.00 0.00 42 1011.6
20260501183701 67 76 0.0 0.0 0.00 0.00 0.00 41 1011.6
20260501183201 67 351 0.0 0.0 0.00 0.00 0.00 45 1011.6
20260501182701 66 193 0.0 0.0 0.00 0.00 0.00 39 1011.7
20260501182204 66 192 0.0 0.0 0.00 0.00 0.00 42 1011.7
20260501181701 65 84 0.0 0.0 0.00 0.00 0.00 43 1011.6
20260501181201 65 76 0.0 0.0 0.00 0.00 0.00 48 1011.6
20260501180704 65 282 0.0 0.0 0.00 0.00 0.00 47 1011.7
20260501180207 64 300 0.0 0.0 0.00 0.00 0.00 43 1011.8
20260501175704 64 220 0.0 0.0 0.00 0.00 0.00 43 1012.0
20260501175204 64 5 0.0 0.0 0.00 0.00 0.00 42 1012.0
20260501174701 64 259 0.0 0.0 0.00 0.00 0.00 47 1012.0
20260501174210 64 241 0.0 0.0 0.00 0.00 0.00 43 1012.0
20260501173701 64 95 0.0 0.0 0.00 0.00 0.00 44 1012.0
20260501173204 64 36 0.0 0.0 0.00 0.00 0.00 53 1012.0
20260501172701 63 242 0.0 0.0 0.00 0.00 0.00 51 1012.1
20260501172204 63 296 0.0 0.0 0.00 0.00 0.00 46 1012.4
20260501171701 63 51 0.0 0.0 0.00 0.00 0.00 44 1012.4
20260501171204 62 199 0.0 0.0 0.00 0.00 0.00 44 1012.4
20260501170707 62 9 0.0 0.0 0.00 0.00 0.00 48 1012.5
20260501170207 62 210 0.0 0.0 0.00 0.00 0.00 43 1012.5
20260501165701 62 202 0.0 0.0 0.00 0.00 0.00 44 1012.6
20260501165201 62 286 0.0 0.0 0.00 0.00 0.00 44 1012.7
20260501164707 62 198 0.0 0.0 0.00 0.00 0.00 53 1012.6
20260501164201 62 248 0.0 0.0 0.00 0.00 0.00 46 1012.7
20260501163704 62 80 0.0 0.0 0.00 0.00 0.00 48 1012.6
20260501163201 61 281 0.0 0.0 0.00 0.00 0.00 51 1012.8
20260501162701 61 88 0.0 0.0 0.00 0.00 0.00 44 1012.9
20260501162210 61 194 0.0 0.0 0.00 0.00 0.00 51 1013.0
20260501161704 61 220 0.0 0.0 0.00 0.00 0.00 50 1013.1
20260501161200 60 74 0.0 0.0 0.00 0.00 0.00 54 1013.0
20260501160701 60 53 0.0 0.0 0.00 0.00 0.00 49 1013.0
20260501160201 60 206 0.0 0.0 0.00 0.00 0.00 54 1013.1
20260501155701 59 323 0.0 0.0 0.00 0.00 0.00 49 1013.1
20260501155200 59 179 0.0 0.0 0.00 0.00 0.00 55 1013.1
20260501154704 59 84 0.0 0.0 0.00 0.00 0.00 54 1013.0